Regional Weather Roundup
Issued by NWS Pendleton, OR

Home | Current Version | Previous Version | Text Only | Print | Product List | Glossary On
Versions: 1 2 3 4 5 6 7 8 9 10 11 12 13 14 15 16 17 18 19 20 21 22 23 24 25 26 27 28 29 30 31 32 33 34 35 36 37 38 39 40 41 42 43 44 45 46 47 48 49 50
000
ASUS46 KPDT 201810
RWRPDT
PENDLETON REGIONAL WEATHER ROUNDUP
NATIONAL WEATHER SERVICE PENDLETON OREGON
1000 AM PST TUE FEB 20 2018

NOTE: FAIR INDICATES FEW OR NO CLOUDS BELOW 12,000 FEET WITH NO
SIGNIFICANT WEATHER AND/OR OBSTRUCTIONS TO VISIBILITY.

# INDICATES UNOFFICIAL STATION AND DATA

WAZ520-201910-
EAST SLOPES OF WASHINGTON CASCADES

CITY            SKY/WX      TMP DP  RH  WIND    PRES   REMARKS
#BULLFROG       N/A         19   9  64  NE2     N/A
#CLE ELUM HS    N/A         21  10  62  CALM    30.08S
#EASTON DOT     N/A         18   9  67  N5      N/A
#ELK HTS DOT    N/A         20  19  96  N1      N/A
#GLENWOOD       N/A         21  18  88  CALM    30.26S
#NELSON 3SW     N/A         15  11  84  CALM    30.48S
#NILE           N/A         19  12  74  CALM    29.44S
#TROUT LAKE 1NE N/A         21  19  92  CALM    30.26S
#TROUT LAKE 1E  N/A         23  21  92  CALM    30.15S
$$

WAZ521-201910-
SIMCOE HIGHLANDS

CITY            SKY/WX      TMP DP  RH  WIND    PRES   REMARKS
#BICKLETON HS   N/A         20  13  74  SW2     29.70S
#SATUS PASS DOT N/A         21  13  71  N1      N/A
#CENTERVILLE 1SWN/A         22  16  77  E5      30.22S
#GOLDENDALE 1NE N/A         26   7  44  NE5     N/A
#GOLDENDALE 4W  N/A         24   9  52  E6      30.18R
#GOODNOE HILLS  N/A         25  12  57  E3      30.09S
#LYLE 6NE       N/A         22  19  88  CALM    30.27R
#PITT 4SE       N/A         19  16  88  CALM    30.29S
$$

WAZ026-201910-
KITTITAS VALLEY

CITY            SKY/WX      TMP DP  RH  WIND    PRES   REMARKS
ELLENSBURG AP   CLOUDY      26  10  50  VRB3    30.15F
6HR MIN TEMP:   17; 6HR MAX TEMP:   26;

#ELLENSBURG CWU N/A         25  12  57  E2      30.20S
#ELLENSBURG 3NE N/A         22  11  62  N1      28.22S
#ELLENSBURG 1E  N/A         23  12  62  CALM    30.31F
#KITTITAS 3S    N/A         24  13  62  CALM    30.25S
#MANASTASH RDG  N/A         21  21  100 N2      N/A
#ROCKY CYN DOT  N/A         24  13  62  CALM    N/A
#RYEGRASS DOT   N/A         18   5  56  CALM    N/A
$$

WAZ027-201910-
YAKIMA VALLEY

CITY            SKY/WX      TMP DP  RH  WIND    PRES   REMARKS
SUNNYSIDE AP    PTCLDY      23  13  65  S6      30.25R
6HR MIN TEMP:   11; 6HR MAX TEMP:   23;

YAKIMA AIRPORT  PTCLDY      N/A N/A N/A CALM    30.22S
YAKIMA-VAGABOND MOSUNNY     22  11  62  CALM    30.17S
6HR MIN TEMP:   9; 6HR MAX TEMP:   22;

#DONALD 2NE     N/A         28  -11 17  S3      29.06S
#GRANDVIEW      N/A         23  13  65  W1      30.31R
#MABTON         N/A         22  17  81  CALM    30.25R
#NACHES 2SW     N/A         23  15  71  NE1     30.14S
#PARKER DOT     N/A         24  15  68  CALM    30.23S
#TERRACE HTS    N/A         24  16  71  CALM    30.26F
#TOPPENISH      N/A         23  16  74  CALM    30.22S
#I82 S UMTANUM RN/A         22  10  59  SW2     N/A
#UNION GAP DOT  N/A         23  13  65  N3      30.26F
#W YAKIMA       N/A         23  13  65  CALM    30.29F
#WHITE SWAN 5E  N/A         20  14  77  CALM    30.32S
#WILEY CITY 3W  N/A         24  11  57  CALM    30.15S
#ZILLAH DOT     N/A         24  15  68  CALM    N/A
$$

WAZ028-201910-
LOWER COLUMBIA BASIN...WASHINGTON

CITY            SKY/WX      TMP DP  RH  WIND    PRES   REMARKS
PASCO           PTCLDY      27  13  55  CALM    30.28S
6HR MIN TEMP:   14; 6HR MAX TEMP:   27;

PROSSER AWOS    N/A         25  16  68  CALM    30.29R
RICHLAND AWOS   PTCLDY      27  16  63  N6      30.29R
#BENTON CITY    N/A         24  15  68  S1      30.21R
#CONNELL 5N     N/A         24  15  68  E3      30.30S
#CONNELL 5NW    N/A         22   0  37  CALM    30.25S
#ELTOPIA 6NW    N/A         26  15  63  CALM    29.20S
#KAHLOTUS       N/A         22  16  77  S7      30.31S
#KENNEWICK 3S   N/A         26  14  60  CALM    30.31R
#PATERSON       N/A         26  15  63  CALM    30.28R
#PROSSER DOT    N/A         26  16  65  CALM    30.27R
#SAGEMOOR 2W    N/A         25  12  57  CALM    30.16S
#TOUCHET 2S     N/A         26  17  68  CALM    30.27S
#WEST PASCO     N/A         30  15  53  CALM    30.29S
$$

WAZ029-201910-
FOOTHILLS OF THE BLUES...WASHINGTON

CITY            SKY/WX      TMP DP  RH  WIND    PRES   REMARKS
WALLA WALLA AP  CLOUDY      29  13  51  S7      30.21R
6HR MIN TEMP:   20; 6HR MAX TEMP:   29;

#CLYDE 6NW      N/A         25  12  57  NE6     30.28S
#DELANEY DOT    N/A         26  12  55  N3      30.26S
#LOWDEN 2SE     N/A         30  17  58  E1      30.22S
#PLEASANT VIEW 1N/A         20  14  77  NE1     30.35S
#PRESCOTT       N/A         30  15  53  CALM    30.29S
#WHITMAN COLLEGEN/A         29  16  58  S2      30.34S
#WAITSBURG 5S   N/A         26  11  52  CALM    30.40S
#WAITSBURG 6SSE N/A         26   6  42  SW1     30.12S
#WALLA WALLA 5E N/A         30  18  60  S1      N/A
#WALLA WALLA U  N/A         31  17  56  CALM    30.29S
#WHITMAN MISSIONN/A         31  18  58  CALM    30.30S
$$

WAZ030-201910-
BLUE MOUNTAINS...WASHINGTON

CITY            SKY/WX      TMP DP  RH  WIND    PRES   REMARKS
#DIXIE 5SE      N/A         21  11  65  S3      29.99F
$$

ORZ009-041-WAZ024-201910-
COLUMBIA RIVER GORGE

CITY            SKY/WX      TMP DP  RH  WIND    PRES   REMARKS
HOOD RIVER AP   LGT SNOW    28  23  81  CALM    30.23S
THE DALLES AP   CLOUDY      28  18  66  CALM    30.26S
6HR MIN TEMP:   20; 6HR MAX TEMP:   28;

#ARLINGTON AIRPON/A         24  18  77  E3      30.30R
#ARLINGTON HS   N/A         26  17  68  N2      30.19F
#CELILO DOT     N/A         29  17  60  N1      N/A
#LYLE           N/A         27  22  81  SE5     30.28R
#MARYHILL       N/A         25  16  68  N7      30.07
#MURDOCK        N/A         27  21  78  SW2     30.23F
#RUFUS DOT      N/A         24  N/A N/A SE8     N/A
#SMITHVILLE     N/A         27  21  78  CALM    30.21S

$$

ORZ510-201910-
NORTH CENTRAL OREGON

CITY            SKY/WX      TMP DP  RH  WIND    PRES   REMARKS
#ANTELOPE       N/A         25  14  62  CALM    30.18S
#CHENOWITH 1W   N/A         19  17  92  E3      N/A
#COW CYN RST AREN/A         22  10  59  SW3     N/A
#DUFUR          N/A         26  18  71  CALM    30.23F
#DUFUR 9E       N/A         24  16  71  SW5     30.31S
#GRASS VALLEY 1SN/A         25  17  71  S3      30.11S
#KENT DOT       N/A         22   9  57  SE6     N/A
#MAUPIN SCHOOL  N/A         24  16  71  CALM    30.24S
#SHANIKO 5WSW   N/A         20  N/A N/A S12     N/A    WCI  8
#SHANIKO 4NW    N/A         21  12  68  S8      30.02S
#TYGH VALLEY 2NEN/A         23  17  77  CALM    30.26F
#WAPANITIA AIRPON/A         24  17  74  E3      30.28F
#WASCO DOT      N/A         21  13  71  E7      N/A
#WASCO 5NE      N/A         19  14  80  CALM    30.29F
$$

ORZ511-201910-
CENTRAL OREGON

CITY            SKY/WX      TMP DP  RH  WIND    PRES   REMARKS
BEND AIRPORT    PTCLDY      27  12  53  VRB5    30.07F
PRINEVILLE AP   MOCLDY      27  12  53  SE10    30.08F
REDMOND AIRPORT PTCLDY      27  12  53  SE9     30.07F
6HR MIN TEMP:   6; 6HR MAX TEMP:   27;

#ASHWOOD SCHOOL N/A         23  14  68  CALM    30.05F
#BEND 1SW       N/A         23  14  68  W3      N/A
#BEND-AWBREY    N/A         25  16  68  SW3     30.27F
#BEND-KIM LN    N/A         26  15  63  SE1     30.23F
#CULVER         N/A         27  13  55  SE8     30.10S
#CULVER 8W      N/A         28   8  42  SE3     30.07S
#LAKE BILLY CHINN/A         27  N/A N/A S7      30.19F
#POWELL BUTTE   N/A         24   8  50  N2      30.01R
#PRINEVILLE     N/A         27  15  60  CALM    30.37F
#PRINEVILLE 3N  N/A         26  14  60  E7      30.28F
#WARM SPRINGS   N/A         26  17  68  CALM    30.07F

$$


ORZ509-201910-
EAST SLOPES OF OREGON CASCADES

CITY            SKY/WX      TMP DP  RH  WIND    PRES   REMARKS
SISTERS AWOS    N/A         18  10  70  CALM    30.02S
#BLUE BOX PASS  N/A         19  N/A N/A SW3     N/A
#CAMP SHERMAN   N/A         26  14  60  CALM    30.31F
#LA PINE DOT    N/A         22  10  59  S6      N/A
#LA PINE 4NW    N/A         19  10  67  CALM    30.37S
#LAVA BUTTE DOT N/A         20   9  62  CALM    N/A
#SISTERS ODOT   N/A         19   9  64  CALM    N/A
#SISTERS 3N     N/A         24   9  52  CALM    30.29F
#SUNRIVER       N/A         22  14  71  S2      30.33F
#TUMALO 3W      N/A         26  11  52  SE6     30.14F
#WANOGA BUTTE D N/A         13   4  67  W5      N/A

$$

ORZ044-201910-
LOWER COLUMBIA BASIN...OREGON

CITY            SKY/WX      TMP DP  RH  WIND    PRES   REMARKS
HERMISTON       PTCLDY      28  15  58  VRB3    30.24S
6HR MIN TEMP:   18; 6HR MAX TEMP:   28;

#BOARDMAN SCHOOLN/A         26  16  65  CALM    30.26S
#BOARDMAN 8SW   N/A         25  17  71  N1      30.29S
#ECHO 8SW       N/A         29  16  58  CALM    30.24S
#I-84 EX 198 DOTN/A         29  16  58  NE2     N/A
#IONE SCHOOL    N/A         27  14  57  CALM    30.29S
#UMATILLA       N/A         26  14  60  W3      30.23R
$$

ORZ507-201910-
NORTHERN FOOTHILLS OF THE BLUES

CITY            SKY/WX      TMP DP  RH  WIND    PRES   REMARKS
PENDLETON AIRPT PTCLDY      27  13  55  S9      30.18R
6HR MIN TEMP:   16; 6HR MAX TEMP:   27;

#ADAMS 3WNW     N/A         28  17  63  S2      30.29F
#ATHENA         N/A         26  14  60  SE3     30.33R
#HELIX SCHOOL   N/A         27  16  63  S5      30.29S
#HELIX 3N       N/A         25  16  68  SE10    30.16R
#HOLDMAN 5SE    N/A         29  17  60  S1      30.17S
#HOLDMAN 6E     N/A         27  17  65  SE3     30.08S
#M-F GROVE ELEM N/A         29  11  46  CALM    30.17S
#M-FREEWATER 5SEN/A         27  13  55  E7      30.18S
#PENDLETON DNTN N/A         30  17  58  CALM    N/A
#PDT AQUATIC CTRN/A         28  16  60  SW2     30.18S
#PDT SUNRIDGE   N/A         26  17  68  CALM    30.22R
#PENDLETON 6SE  N/A         25  16  68  N1      30.27R
#PENDLETON 7NW  N/A         33  18  53  CALM    N/A
#PILOT ROCK 1S  N/A         27  10  48  S8      30.17R
#PILOT ROCK     N/A         30  17  58  CALM    30.18R
#TUTUILLA       N/A         23  14  68  CALM    30.25R
#UMAPINE 2E     N/A         32  18  56  SW2     30.20F

$$

ORZ508-201910-
SOUTHERN FOOTHILLS OF THE BLUES

CITY            SKY/WX      TMP DP  RH  WIND    PRES   REMARKS
#AJAX           N/A         23   6  47  CALM    30.26S
#CONDON 5W      N/A         18  12  77  SW5     30.02S
#FOSSIL SCHOOL  N/A         25  14  62  NE2     30.03S
#HEPPNER EOC    N/A         26  14  60  NE6     30.22S
#HEPPNER 4NE    N/A         25  13  60  CALM    30.29S
#LEXINGTON 2SE  N/A         31  15  51  SW5     30.12S
#MIKKALO        N/A         24  12  60  CALM    30.27R
#OLEX 4N        N/A         21  15  77  CALM    30.18R
#RUGGS 5NE      N/A         26  11  52  S2      30.27S
#RUGGS 2SW      N/A         21  11  65  S9      30.33S

$$

ORZ502-503-201910-
BLUE MOUNTAINS

CITY            SKY/WX      TMP DP  RH  WIND    PRES   REMARKS
MEACHAM         CLOUDY      15   7  70  E3      30.05R
6HR MIN TEMP:   -3; 6HR MAX TEMP:   15; 6HR PCP:  TRACE;

#BATTLE MTN DOT N/A          7   3  83  S8      N/A
#GRANITE        N/A         16  -2  44  S2      29.62S
#HARDMAN 10S    N/A         11   7  83  SE3     30.51S
#LADD CYN SMT   N/A         12   4  70  SE12    N/A    WCI -2
#LADD CREEK ODOTN/A         11   3  69  NE6     N/A
#N POWDER DOT   N/A         15   6  67  SE3     N/A
#PIKES PEAK     N/A         16   9  73  S8      27.99S
#SUMMERVILLE 5NWN/A         11   6  80  CALM    28.06S
#TOLLGATE       N/A          7   5  91  CALM    30.00R
#TROY SCHOOL    N/A         21   9  59  CALM    30.22F
#UKIAH          N/A          9   4  80  CALM    30.34S
#WESTON 4E      N/A         18  12  77  E7      30.32S
$$

ORZ505-201910-
JOHN DAY BASIN

CITY            SKY/WX      TMP DP  RH  WIND    PRES   REMARKS
JOHN DAY        CLOUDY      21   7  54  NE3     30.08S
#ANTELOPE 9ESE  N/A         28  12  50  CALM    N/A
#DAYVILLE SCHOOLN/A         20   3  47  E3      30.12F
#MITCHELL 8NW   N/A         22  11  62  CALM    30.35S
#MONUMENT HS    N/A         20   5  51  NW6     30.15S
#MT. VERNON 5SE N/A         18   8  64  CALM    30.00S
#SPRAY SCHOOL   N/A         22  N/A N/A SW2     N/A
$$

ORZ506-201910-
OCHOCO AND JOHN DAY HIGHLANDS

CITY            SKY/WX      TMP DP  RH  WIND    PRES   REMARKS
#HORSE RIDGE DO N/A         20   9  62  SE6     N/A
#IZEE 6NW       N/A         18   9  67  N2      N/A
#KEYES SMT DOT  N/A         13   4  67  E7      N/A
#PAULINA ODOT   N/A         17   8  67  CALM    N/A
#PINE MTN OBS   N/A         11   8  87  S1      N/A
#PRAIRIE CITY   N/A         17  -1  44  CALM    30.24S
#SENECA         N/A         15  N/A N/A NW2     N/A
#SENECA 9NW     N/A         13   5  70  CALM    30.40S
$$

ORZ049-201910-
GRANDE RONDE VALLEY

CITY            SKY/WX      TMP DP  RH  WIND    PRES   REMARKS
LA GRANDE       CLOUDY      15   6  67  VRB3    30.18S
#COVE SCHOOL    N/A         14   7  73  CALM    30.16R
#COVE 6NW       N/A         12   6  76  CALM    30.41R
#ELGIN 3N       N/A         11  -4  50  CALM    30.13S
#ELGIN 1E       N/A         13   4  67  CALM    N/A
#IMBLER SCHOOL  N/A         11   5  76  CALM    30.13R
#ISLAND CITY 4N N/A         32  31  96  CALM    30.20F
#LADD CYN DOT   N/A         14   8  76  CALM    N/A
#UNION 1S       N/A         13   6  73  W2      30.42R
$$

ORZ050-201910-
WALLOWA COUNTY

CITY            SKY/WX      TMP DP  RH  WIND    PRES   REMARKS
JOSEPH AIRPORT  FAIR        10   0  63  CALM    30.04S
#ENTERPRISE HS  N/A         12   5  73  CALM    30.28R
#IMNAHA SCHOOL  N/A         15   2  56  SE2     30.24S
#JOSEPH 3N      N/A          6  -6  57  CALM    30.07S
#LOSTINE        N/A         10   2  69  CALM    30.20S
#LOSTINE 3SE    N/A         14   3  61  CALM    30.12R
#MT HOWARD 8000 N/A          3  -1  83  CALM    29.59R
#WALLOWA LAKE   N/A         11   5  76  SE1     30.01S
#WALLOWA SCHOOL N/A          8   2  76  CALM    30.11S



$$



USA.gov is the U.S. government's official web portal to all federal, state and local government web resources and services.